GFSGBSN_850_spd_075.txt.gz
Wind_Speed
10 10 9 11 16 22 19 18 18 19 20 19 20 22 22 21 21 20 19 19 19 19 20 21 21 21 22 8 23 19 12 11 13 13 13 14 14 19 8 9 16 8 6 9 5 9 12
13 13 12 12 12 13 15 20 21 20 20 21 21 22 23 22 21 20 20 19 18 17 18 19 18 18 16 13 14 4 13 18 16 16 15 14 14 19 21 13 9 21 15 8 4 10 11
14 14 15 15 14 12 14 13 15 17 21 21 21 21 23 24 23 22 20 20 19 17 17 17 14 14 20 36 14 11 15 13 16 17 14 14 12 21 19 8 16 20 8 9 4 6 5
20 19 17 15 16 17 15 14 14 15 16 19 21 20 21 25 25 24 22 21 19 16 17 15 14 11 16 24 18 19 24 18 14 17 20 13 18 24 11 16 18 9 7 6 10 6 9
19 19 18 19 18 18 18 17 15 16 17 17 19 20 20 22 25 26 24 22 19 17 18 14 15 7 17 7 15 14 22 20 17 16 19 20 18 8 9 5 6 6 10 12 15 11 4
21 20 20 20 19 19 20 21 19 18 17 17 17 17 18 20 24 27 25 22 16 19 18 10 8 8 16 8 12 13 10 20 20 16 17 17 12 3 4 2 8 9 6 5 6 6 9
23 22 23 22 22 21 20 20 20 21 19 17 17 17 19 19 22 25 23 16 4 4 6 13 10 13 18 12 9 9 10 18 18 17 10 19 5 12 12 14 17 17 14 8 5 1 4
26 26 26 25 24 23 22 22 21 20 20 18 16 16 17 20 21 23 19 9 2 11 14 20 30 35 37 31 16 17 14 19 16 13 8 9 18 13 16 18 18 20 6 7 7 7 5
28 29 28 28 27 26 25 24 23 21 20 19 17 16 16 16 17 17 7 10 15 11 9 19 34 33 45 31 28 30 18 26 10 11 15 16 9 18 19 20 18 6 5 7 7 6 4
30 29 29 29 29 29 29 27 26 25 22 20 18 17 16 15 10 9 10 9 14 7 5 8 11 13 26 22 11 41 29 21 8 20 18 12 20 20 20 19 8 5 9 9 6 5 2
30 31 31 30 30 30 30 29 28 26 24 22 20 17 15 12 8 12 7 8 6 5 4 7 7 9 11 24 9 17 41 27 18 19 11 15 10 19 20 13 7 8 7 1 3 6 5
33 32 31 31 31 31 31 30 28 26 23 20 19 18 15 16 18 10 14 9 5 3 11 6 7 6 7 26 11 6 25 34 9 14 16 13 21 11 14 10 8 5 4 6 2 1 4
35 34 34 33 33 32 31 29 27 25 23 18 16 17 17 17 21 3 12 9 1 7 5 6 4 7 7 10 15 10 12 14 14 12 17 20 19 13 17 10 7 6 3 2 4 1 6
35 34 34 34 33 31 30 28 26 24 23 22 20 19 21 22 19 10 11 1 11 16 23 6 6 13 9 7 15 19 15 15 18 12 8 14 11 20 9 15 8 7 8 5 6 2 3
38 38 37 36 34 32 31 29 29 29 27 25 22 22 25 23 16 15 8 10 13 18 12 17 24 19 11 10 7 16 21 18 21 20 15 12 13 4 18 5 9 4 6 10 5 2 3
40 39 38 36 35 35 34 33 32 30 27 25 26 26 32 23 17 19 7 25 18 21 21 24 12 9 11 9 6 9 7 8 16 23 18 5 4 16 11 7 8 10 4 4 2 7 5
42 41 39 38 39 38 36 36 34 32 29 25 26 15 16 28 23 19 17 15 20 31 22 14 16 20 22 19 13 15 8 12 15 18 18 22 10 10 11 14 13 5 9 3 2 5 6
44 44 42 42 41 40 39 37 36 33 29 26 24 5 11 30 18 11 19 21 14 18 21 19 15 22 22 17 16 18 23 8 15 5 23 11 4 10 20 15 21 17 9 9 5 5 4
45 44 44 43 42 41 40 39 37 35 31 29 12 10 23 41 14 15 13 21 27 20 20 12 12 14 21 21 8 13 10 19 7 5 7 6 4 9 12 12 13 17 7 8 6 4 6
46 46 45 45 44 43 42 42 40 38 34 33 11 5 12 38 19 15 16 20 22 27 25 29 21 19 17 20 7 10 18 8 12 8 12 11 5 15 14 11 3 7 9 9 7 5 4
49 48 47 46 44 43 42 41 40 39 37 37 18 7 13 9 20 15 20 10 24 20 24 11 15 21 19 13 10 9 7 18 14 11 7 7 16 19 18 18 11 9 10 12 11 11 7
48 46 45 45 44 43 42 42 41 40 38 42 16 9 19 10 27 24 21 17 20 21 20 21 23 21 13 16 9 12 17 10 11 9 7 5 5 4 15 13 14 14 11 15 13 10 7
41 41 41 41 42 42 43 44 44 44 42 42 38 27 11 18 15 20 23 27 20 19 19 32 21 20 19 20 11 15 8 16 11 10 5 8 5 4 13 12 7 10 11 8 9 13 9
36 37 37 38 39 39 40 43 46 48 53 49 37 26 21 7 19 18 21 26 23 21 21 23 27 18 27 25 6 3 4 17 20 20 17 4 6 4 4 2 14 4 4 5 9 11 6
38 39 40 41 41 41 40 41 42 45 53 60 34 34 25 16 9 20 18 20 28 34 28 25 28 28 21 19 5 4 5 3 9 14 14 3 3 2 5 10 4 11 5 4 5 8 6
38 40 40 41 43 43 43 45 44 45 50 61 52 40 38 14 19 21 20 22 13 18 19 27 33 24 20 6 4 6 5 4 4 5 9 7 3 4 2 4 9 3 9 9 3 6 4
42 42 44 44 45 45 46 46 47 46 49 62 51 45 33 26 23 32 16 19 26 18 10 13 15 19 23 4 6 5 9 10 5 5 4 3 3 5 1 2 6 5 13 8 6 7 8
42 41 40 42 46 49 49 47 48 48 49 48 47 51 42 22 13 40 23 20 21 18 8 8 12 14 2 5 4 4 4 8 6 6 4 5 6 6 4 4 4 15 2 8 5 12 17
35 36 38 38 38 40 46 48 48 48 48 46 25 49 52 17 17 22 29 26 29 21 6 19 12 10 9 4 4 3 3 2 7 5 3 6 5 4 4 4 9 9 7 5 1 6 5

GFSGBSN_850_spd_078.txt.gz
Wind_Speed
14 13 10 10 10 11 11 15 18 17 17 18 19 21 22 24 22 21 20 19 17 16 18 19 19 18 18 7 23 18 19 9 7 11 11 13 14 7 3 5 8 6 8 19 16 10 8
14 15 15 14 13 12 12 10 9 12 15 18 20 19 21 23 24 23 22 22 20 17 17 18 18 17 14 9 10 10 10 15 11 12 15 15 14 13 8 9 3 13 13 20 12 14 7
20 20 16 14 13 14 13 12 12 13 14 14 15 17 20 22 24 25 25 22 22 19 18 18 17 15 18 33 15 13 15 18 15 14 14 17 17 13 4 8 10 13 8 10 9 6 2
19 19 19 19 18 17 16 14 13 13 14 15 16 16 18 20 22 23 23 24 23 19 18 18 17 12 16 19 17 24 25 24 18 14 16 12 10 16 15 11 10 6 5 4 11 2 4
18 19 20 19 19 18 18 18 16 15 15 16 16 16 18 17 20 23 23 23 21 19 19 17 14 9 16 11 11 3 16 28 21 16 16 15 17 21 14 2 5 3 6 6 11 8 5
20 22 20 21 20 19 19 18 17 17 17 16 16 16 17 18 20 23 26 21 14 15 16 13 8 7 20 14 4 10 8 14 21 11 17 16 10 5 2 3 6 7 4 5 8 6 5
23 22 22 20 22 21 20 19 17 17 18 17 17 16 16 17 18 20 23 17 6 1 4 10 9 14 18 12 13 8 5 12 19 12 8 8 3 12 11 9 7 5 11 14 16 13 6
26 23 24 24 21 23 22 20 19 18 17 17 16 16 15 15 16 17 16 10 6 13 16 24 28 36 43 36 16 22 6 14 12 10 6 6 17 11 8 7 9 9 13 19 18 5 5
27 25 26 26 26 22 22 22 21 19 18 17 16 15 14 13 12 10 10 8 13 22 8 18 32 32 44 29 30 37 17 21 8 8 10 13 7 17 11 12 13 15 13 18 8 5 1
28 27 27 27 28 23 23 23 22 21 20 18 16 14 11 12 10 7 8 8 14 12 5 7 9 12 27 17 11 38 31 16 8 17 10 9 16 13 11 16 12 11 15 10 5 3 2
29 29 27 27 28 27 24 23 22 22 20 18 15 13 11 9 9 10 11 15 10 4 5 5 5 3 10 20 9 13 38 23 11 12 9 11 11 14 19 17 10 13 18 6 4 3 2
29 29 28 29 28 27 25 23 22 21 20 17 14 12 10 13 16 9 11 10 2 1 10 6 5 6 7 13 4 6 11 13 14 5 8 15 14 7 15 14 16 17 5 4 4 2 2
31 32 33 32 30 27 25 25 23 21 18 16 13 11 12 13 15 3 7 6 1 7 5 4 1 8 4 7 5 1 4 17 8 9 15 10 19 9 6 10 7 7 5 2 3 3 6
34 31 30 30 29 27 26 25 23 20 17 14 13 12 15 17 12 6 5 0 11 6 12 10 9 18 6 7 6 5 4 6 16 3 6 11 6 16 13 15 9 8 9 6 5 4 4
32 33 33 33 31 30 28 25 22 19 17 16 15 18 23 20 14 10 5 10 9 3 5 6 10 9 4 5 9 7 6 9 9 17 6 8 12 6 14 13 14 7 5 9 6 1 1
34 34 33 32 31 30 28 26 23 21 20 18 20 23 29 19 19 16 6 18 8 3 11 12 6 4 3 10 7 13 5 4 9 12 16 5 3 14 5 15 9 10 7 4 1 7 4
36 36 36 35 34 33 31 27 25 24 22 20 21 14 17 25 23 17 14 11 12 27 17 3 5 8 11 11 7 5 6 21 10 11 12 17 2 6 8 11 10 2 4 3 6 6 6
39 39 39 37 37 35 33 30 28 27 24 23 24 7 13 29 15 10 16 12 12 13 9 11 9 11 13 7 7 7 13 10 24 24 13 15 10 12 15 6 2 11 13 10 5 5 3
42 41 41 40 38 36 33 32 32 30 28 27 14 12 25 36 11 15 10 17 22 16 11 4 5 9 1 6 6 6 7 4 23 14 8 7 10 4 16 11 6 5 7 11 7 5 9
41 39 38 37 35 35 35 35 34 33 32 31 11 5 12 31 18 19 19 11 18 17 28 28 16 16 12 11 9 8 4 7 23 22 35 21 7 21 16 6 3 2 11 17 14 7 6
43 42 42 42 41 40 38 38 37 36 35 34 17 7 10 9 17 14 19 10 21 16 15 13 9 26 19 6 4 17 5 5 11 21 10 4 6 4 12 7 5 10 16 16 16 9 12
47 46 46 45 45 43 42 40 40 38 34 40 14 8 12 2 23 22 21 19 20 16 20 23 21 10 10 19 15 13 10 1 6 11 12 10 4 5 4 9 10 16 21 14 11 8 8
45 44 43 42 40 40 40 40 39 40 39 34 30 26 17 16 11 16 19 24 18 20 18 34 21 10 16 18 25 22 16 7 7 2 9 7 5 5 5 10 13 9 16 19 6 6 9
33 33 34 35 36 36 38 39 38 39 45 45 30 26 13 8 16 17 19 22 26 22 21 14 16 18 30 24 26 20 11 5 12 11 9 8 12 2 3 6 8 8 12 19 11 11 8
28 30 32 33 33 34 35 37 38 40 44 51 35 34 22 11 9 18 22 16 27 30 27 28 32 33 19 12 5 4 4 4 9 12 12 11 9 4 5 7 3 8 12 5 7 9 7
32 32 33 34 35 36 37 36 37 39 43 48 51 34 31 8 17 17 14 23 12 14 16 28 40 35 21 3 4 7 5 4 4 6 1 5 10 5 2 7 8 4 15 23 1 6 5
34 35 35 36 36 37 37 38 40 40 42 50 44 46 30 17 18 30 11 14 23 14 3 4 12 19 22 3 6 4 6 8 4 4 5 4 4 3 1 1 6 8 7 16 8 7 7
35 37 39 40 41 42 42 41 40 42 43 44 45 41 44 18 14 34 30 23 24 20 6 6 5 7 2 5 4 4 4 7 5 5 6 5 4 2 3 1 6 6 10 6 6 8 7
38 38 35 35 39 43 44 44 43 44 44 43 30 34 48 29 6 31 40 38 32 28 17 17 6 3 11 3 1 2 2 2 5 5 5 5 7 3 5 6 5 9 1 15 12 3 7

GFSGBSN_850_spd_081.txt.gz
Wind_Speed
13 12 13 12 11 10 10 10 10 11 15 18 20 21 22 22 22 23 23 21 21 21 21 21 21 21 19 9 20 18 16 10 7 10 10 11 12 6 4 3 3 6 5 9 19 21 15
14 13 13 11 12 12 12 12 11 11 13 13 13 16 17 21 21 21 21 22 22 21 21 20 20 21 14 8 9 10 11 25 22 15 13 14 7 9 7 5 2 3 7 13 19 26 10
18 18 18 18 17 14 14 13 13 14 14 15 16 16 18 19 21 20 20 19 20 21 19 19 19 19 18 32 18 20 15 13 18 17 14 12 15 8 1 6 5 5 7 8 9 9 5
15 16 16 16 15 15 16 17 16 15 15 16 18 18 17 18 19 21 20 21 19 20 20 17 17 15 17 23 19 23 21 25 21 19 16 11 11 9 5 9 6 5 1 3 3 5 6
18 17 17 18 18 15 16 16 17 16 17 17 18 19 18 18 19 21 21 21 22 19 18 15 13 10 18 15 13 5 7 18 23 20 15 12 10 9 5 2 4 2 4 5 9 3 3
21 20 21 20 19 18 17 17 18 17 17 17 17 19 19 19 20 21 23 24 10 7 7 7 5 6 20 15 7 6 10 8 17 18 14 10 8 4 3 4 6 5 3 3 5 4 2
24 23 24 22 22 21 19 18 18 17 18 18 18 18 18 17 19 20 23 16 6 3 2 8 6 14 16 11 10 8 4 9 12 12 8 7 4 12 14 9 3 3 2 4 14 13 3
24 25 25 23 21 23 21 19 19 18 17 17 18 18 17 16 16 16 15 7 9 12 15 26 28 38 40 32 16 22 5 8 9 8 6 3 16 6 7 7 6 5 5 12 11 9 4
26 25 26 25 24 24 23 19 19 19 18 17 17 17 15 14 13 11 9 4 11 16 8 14 23 24 37 29 27 39 22 7 6 7 9 10 6 12 12 7 7 8 7 10 7 11 5
28 24 25 26 27 25 26 22 19 20 18 17 17 16 13 13 11 4 4 6 11 14 4 7 5 7 10 10 9 31 24 21 7 13 6 8 14 4 5 12 10 11 10 10 10 6 4
26 31 30 27 26 26 24 23 21 19 17 17 16 14 11 11 10 6 10 12 10 1 6 2 2 6 5 12 7 3 31 23 10 7 7 9 8 17 13 14 10 10 7 9 9 11 2
30 28 26 26 26 25 25 25 23 20 17 16 15 11 8 11 16 9 13 9 3 2 9 6 3 5 2 10 5 3 8 10 17 4 5 10 5 9 14 15 12 8 2 1 2 2 3
26 27 29 28 28 29 29 26 21 19 18 15 13 11 11 11 9 3 9 4 2 5 6 3 3 5 5 3 4 3 5 12 7 11 14 3 13 4 2 6 6 5 3 2 3 1 7
28 31 30 30 33 29 24 22 20 20 17 13 11 11 14 14 13 8 3 2 9 4 5 9 7 8 2 11 5 6 4 6 8 1 4 12 8 14 7 11 5 7 9 5 6 4 5
29 28 29 28 28 27 26 24 22 20 14 13 10 14 18 17 13 8 4 6 6 4 3 6 7 5 4 5 6 9 5 2 6 9 5 6 8 4 11 7 13 5 5 11 5 1 3
31 32 32 32 31 30 27 23 21 18 15 13 17 17 21 16 16 12 4 11 6 1 4 4 2 4 5 7 8 6 4 3 7 10 9 4 3 7 6 9 14 11 6 2 2 7 5
32 31 31 30 30 29 27 25 22 20 17 16 18 10 8 19 18 15 11 7 3 16 10 4 1 5 3 4 5 4 4 6 3 8 10 6 6 5 2 6 10 4 6 3 5 5 6
34 33 33 32 32 30 30 27 25 22 18 20 21 7 12 20 15 9 15 6 8 6 2 6 4 4 6 6 5 4 4 5 13 5 5 4 5 12 24 9 3 10 12 10 5 4 3
36 35 34 33 33 33 32 30 27 25 24 24 18 16 22 30 11 14 10 18 13 8 4 3 4 8 3 4 5 9 7 4 5 5 6 10 4 4 7 9 17 5 4 4 2 4 9
37 37 36 35 33 34 33 31 28 28 29 28 9 5 12 31 18 18 19 17 12 16 19 15 4 6 4 3 6 7 6 5 12 8 8 10 5 12 14 6 5 5 6 1 7 6 5
38 38 39 37 35 33 32 30 29 30 32 32 19 7 11 9 12 13 16 9 17 12 15 16 4 21 17 10 11 17 16 12 13 2 2 6 7 14 18 17 5 5 5 3 2 9 10
43 43 41 41 40 39 38 36 34 35 35 40 16 7 13 2 22 20 18 18 22 18 13 10 12 8 11 13 16 6 6 9 5 2 2 3 5 15 6 13 17 15 9 9 4 9 12
45 44 44 45 43 42 40 39 39 41 41 33 33 20 11 14 8 14 18 23 19 17 14 28 18 15 13 23 26 30 28 23 9 4 2 0 5 6 5 5 5 3 16 13 8 8 9
43 40 39 40 42 44 45 45 44 44 47 46 25 18 11 8 14 15 16 22 21 16 22 13 28 15 36 22 22 26 25 26 20 12 14 8 3 3 4 1 4 8 9 15 18 18 17
33 32 27 28 32 35 37 39 41 44 48 51 35 26 19 10 10 17 21 14 22 26 23 21 30 27 12 11 3 5 3 3 10 13 14 10 5 4 3 3 4 4 5 9 12 16 23
27 26 27 28 28 28 29 32 36 40 45 48 44 33 28 6 17 18 13 24 10 13 16 26 38 33 24 6 4 5 4 5 4 3 8 13 9 4 1 3 8 6 10 10 3 11 9
29 29 29 30 30 29 30 31 33 35 39 46 40 46 26 13 14 29 12 16 21 13 3 7 15 15 26 5 3 4 4 3 4 3 3 3 3 6 7 6 6 6 7 1 6 7 8
32 32 32 32 32 32 32 32 33 34 36 42 43 37 43 8 14 29 31 21 19 24 6 4 5 3 5 6 5 4 3 6 5 4 4 5 5 2 2 4 5 2 4 1 1 18 10
34 33 32 32 32 34 35 34 34 35 36 38 32 42 42 26 5 29 36 36 40 36 27 13 6 4 9 4 3 2 3 1 5 6 4 6 5 4 5 3 27 18 5 4 7 10 12

GFSGBSN_850_spd_084.txt.gz
Wind_Speed
12 12 12 11 13 14 15 15 15 14 12 14 15 14 16 18 19 20 21 22 22 24 25 24 22 22 21 11 18 17 13 11 11 11 11 10 10 7 5 5 4 5 6 8 13 22 18
16 17 16 16 16 15 14 14 14 14 17 15 16 17 16 17 20 20 19 20 21 22 23 23 22 21 15 8 10 10 9 18 24 15 13 13 6 11 3 5 6 5 7 15 18 24 14
16 15 15 15 14 15 17 18 18 18 16 18 18 18 18 17 19 20 20 20 22 23 22 24 21 19 18 31 14 23 20 14 13 17 18 12 11 5 3 2 4 5 5 8 8 6 5
18 18 16 16 16 16 17 16 17 17 18 18 19 19 20 20 20 21 23 22 24 27 25 22 20 14 16 25 20 23 20 22 18 16 17 13 7 6 5 6 4 2 4 4 4 3 2
19 19 20 17 17 19 18 18 17 18 18 18 18 18 19 21 21 23 24 24 27 23 18 13 13 11 16 15 9 1 3 8 11 20 16 10 3 7 4 4 3 4 3 4 8 4 2
22 21 21 20 21 19 20 20 19 18 18 19 19 18 18 19 21 23 25 25 14 12 5 3 5 5 16 9 8 4 2 2 3 19 14 9 8 4 2 4 7 6 4 4 7 3 4
22 22 25 23 22 22 23 22 21 19 19 19 19 18 16 18 20 21 24 22 7 4 6 9 6 11 13 11 9 7 6 6 7 11 7 9 4 11 13 6 6 4 3 3 8 5 4
26 27 23 21 25 25 23 22 21 21 20 19 19 18 16 17 18 18 13 7 7 11 16 27 27 37 35 25 10 11 3 5 6 6 6 2 11 10 9 9 7 4 4 7 10 6 6
26 26 27 24 25 25 24 23 23 21 21 18 19 17 14 16 16 15 8 0 10 18 7 14 13 15 18 22 21 35 20 5 6 6 10 14 4 12 11 6 8 6 10 5 8 7 5
26 26 26 28 24 25 25 25 24 25 23 20 17 17 13 15 11 7 6 2 13 15 4 7 4 3 3 7 7 22 30 19 6 10 6 8 14 3 6 11 10 9 9 9 6 3 4
28 28 27 27 29 29 26 26 24 22 21 18 16 14 11 11 11 8 9 12 12 1 6 0 4 1 4 8 11 1 18 18 11 6 6 7 4 9 8 6 10 9 7 8 5 5 2
26 25 26 30 25 26 25 25 24 23 23 20 15 12 10 11 14 12 13 9 5 1 8 3 3 2 2 5 5 4 2 6 10 3 2 6 3 7 9 9 11 3 3 5 2 2 3
30 27 24 24 26 27 24 22 26 27 22 18 16 12 11 11 9 7 9 5 2 5 5 2 3 4 4 4 4 5 4 6 4 5 13 2 8 3 3 4 7 6 5 2 2 1 5
31 29 29 29 27 25 24 25 27 20 18 18 15 11 13 15 12 11 5 2 8 3 4 4 5 7 4 8 4 7 3 3 5 1 2 10 8 10 6 8 7 9 10 5 6 4 4
25 27 26 27 27 28 27 26 21 19 19 17 13 15 16 17 12 7 1 3 5 4 3 5 3 5 4 5 5 6 5 5 7 6 3 3 5 5 7 11 12 5 8 8 4 1 2
29 27 26 30 27 25 24 23 22 21 18 13 15 14 19 15 12 10 3 8 4 2 5 4 2 4 5 6 7 8 5 3 4 6 3 4 5 4 5 4 6 9 6 3 1 5 5
28 27 26 26 26 26 27 24 22 19 16 15 15 7 7 15 15 12 7 5 2 12 8 4 3 3 2 4 4 4 2 3 4 6 5 6 3 7 9 3 8 3 9 3 5 5 6
30 27 27 27 27 27 26 24 22 20 16 18 16 4 10 15 11 6 11 4 2 7 7 4 1 2 2 3 3 1 4 4 10 4 4 3 3 4 11 16 12 4 7 12 10 4 3
29 29 29 30 30 28 27 27 24 23 20 23 11 12 12 24 9 12 4 11 10 4 3 2 3 5 2 2 2 5 6 7 7 5 5 5 2 5 7 5 3 5 5 5 2 2 8
33 33 32 32 30 28 27 26 26 24 24 26 8 4 13 26 18 12 16 13 12 10 15 8 2 2 2 1 3 2 4 5 14 13 4 3 4 6 5 9 15 12 8 14 8 5 7
35 34 34 34 32 30 28 28 28 27 27 28 19 6 9 5 11 14 12 5 18 11 10 14 5 11 6 4 4 9 10 13 16 17 5 3 4 3 11 14 20 26 22 10 15 12 10
35 35 36 35 34 33 32 33 28 27 30 34 17 11 13 4 5 14 16 15 15 15 10 7 8 7 11 10 10 4 3 3 4 3 2 2 3 3 7 13 18 20 21 14 14 5 6
39 40 40 41 40 39 38 36 35 34 34 32 35 24 19 12 12 11 16 18 17 17 12 25 16 12 12 15 18 20 25 19 10 7 1 2 3 2 9 10 20 10 24 21 8 6 6
43 43 43 43 41 41 44 41 40 40 43 44 31 29 16 9 15 18 16 21 20 18 21 10 19 15 28 13 18 17 23 22 19 14 13 7 3 2 5 7 8 8 5 14 14 12 9
42 42 41 40 40 40 44 47 44 45 48 51 45 23 16 11 12 11 15 13 23 28 21 21 25 24 15 11 3 4 2 2 9 16 16 16 7 3 3 4 8 15 6 5 7 18 14
34 32 32 32 32 33 35 40 46 48 48 49 50 48 13 7 18 20 14 22 10 11 11 19 24 24 19 2 2 3 3 4 3 3 14 13 11 7 3 3 5 6 9 23 0 10 6
31 31 31 24 22 22 23 25 36 45 48 50 43 49 35 11 15 29 15 16 23 12 3 5 13 16 23 4 4 4 5 4 3 2 3 5 6 14 8 5 6 4 9 29 6 5 8
31 29 27 27 28 28 30 28 27 30 40 45 48 38 46 12 19 27 29 20 22 26 5 5 6 5 5 7 4 4 3 5 4 5 3 6 5 4 4 5 7 5 13 6 5 16 17
31 31 31 31 31 30 31 31 32 32 30 34 32 41 37 30 5 29 32 35 34 33 24 13 5 4 7 3 3 2 3 0 5 3 4 5 6 3 6 4 4 9 10 31 24 23 16